Location: Camps Bay
(33.9517°S, 18.3844°E)
Time: 02:45:35
(UTC+00:00)

Cosmos 2278 - Pass Details

Date: 18 January 2020
Orbit: 840 x 852 km, 71.1° (Epoch: 22 February)

Event Time Altitude Azimuth Distance (km) Brightness Sun altitude
Rises 02:36:23 0° 206° (SSW) 3,432 7.0 -14.4°
Reaches altitude 10° 02:38:53 10° 210° (SSW) 2,492 6.2 -14.0°
Maximum altitude 02:44:28 56° 287° (WNW) 1,012 3.8 -13.1°
Drops below altitude 10° 02:50:00 10° 3° (N) 2,471 5.8 -12.1°
Sets 02:52:29 0° 7° (N) 3,400 6.6 -11.7°
